STARLINK-34266, 65093

Orbit data source: Space-Track

STARLINK-34266, 65093 is a payload satellite owned by SpaceX/Seattle (US) in LEO that was launched on Mon, 04 Aug 2025 UTC via an FALCON 9 launch vehicle from the Air Force Eastern Test Range (AFETR). Payload-class satellites include a variety of spacecraft equipped with specific instruments for various scientific and technological missions. These include communications satellites like Starlink; space stations such as the ISS; scientific satellites like the Hubble; Earth observation satellites from companies like Planet Labs, Umbra, and HawkEye 360; GPS; miniature CubeSats for education and research; and military/defense satellites.

Loading next visibility...
Identifier
65093, 2025-167R
Orbit
LEO
Country
Flag of USUS
Related business
Manufacturer
SpaceX/Seattle
Mission
Operational spacecraft
Bus & Motor
STARLINK V2MO, Unknown motor
Mass
575 kg wet, ~530 kg dry
Launch date (UTC)
2025-08-04 (1 month ago)
Launch vehicle
FALCON 9
Launch site
Air Force Eastern Test Range (AFETR)
Object type
Payload
Rocket body
Debris
Shape & HBR
Unknown
Radar Cross Section
Large (>1 m²)

Expand to show TLE details & history
Last TLE update: 12 hours ago

TLE from 12 hours ago
0 STARLINK-34266
1 65093U 25167R   25243.11434229  .00480759  00000-0  30766-2 0  9993
2 65093  53.1581 195.3196 0001874 166.9990 193.1079 15.74389570  4252
Epoch: 2025-08-31T02:44Z
TLE epoch observation values (Epoch: 2025-08-31T02:44:39.173Z)
Latitude
-0°
Longitude
174.61744°
Altitude
348.513 km
Speed
7.7 km/s
True Right ascension
13h 01m 16s
True Declination
0° 00' 00"
Sunlit
Object was in daylight at epoch
Visualization orbit readout
Latitude
Unknown
Longitude
Unknown
Altitude
Unknown
Speed
Unknown
Apparent Right ascension
Unknown
Apparent Declination
Unknown
Sunlit
N/A
Visualization observer readout
Local Sidereal Time
06:14:57
Azimuth
Unknown
Elevation
Unknown
Doppler factor
Unknown
Orbital elements
Apogee altitude
347.891 km
Perigee altitude
345.37 km
Semi-major axis
6,724.767 km
Eccentricity
0.00019
Inclination
53.1581°
RAAN
195.3196°
Arg. of periapsis
166.999°
True anomaly
193.10303°
Mean anomaly
193.1079°
Eccentric anomaly
193.10547°
Mean motion
3.93575 °/min
Orbital period
91.47 mins
BSTAR
0.0030766
Loading maneuver chart data...
Computing Atmospheric mass density...
Loading historical data...
Loading historical data...
Loading historical data...
Loading historical data...
Loading historical data...
Loading historical data...
Loading historical data...

Documentation

Showing up to 5 results
|